Ogden, UT

7:37 PM MST on November 21, 2017 (GMT -0700)
Ogden-Hinckley

Weather History for KOGD - January, 2013

Change the Weather History Date:

Tuesday, January 22, 2013

  Actual Average Record
Temperature  
Mean Temperature 12 °F -  
Max Temperature 19 °F 36 °F 53 °F (1934)
Min Temperature 5 °F 18 °F -21 °F (1930)
Degree Days  
Heating Degree Days 53    
Moisture  
Dew Point 5 °F    
Average Humidity 80    
Maximum Humidity 92    
Minimum Humidity 72    
Precipitation  
Precipitation 0.00 in - - ()
Sea Level Pressure  
Sea Level Pressure 30.48 in    
Wind  
Wind Speed 1 mph (South)    
Max Wind Speed 6 mph    
Max Gust Speed -    
Visibility 3 miles    
Events Fog , Snow    
Averages and records for this station are not official NWS values.
T = Trace of Precipitation, MM = Missing Value Source: NWS Daily Summary

Daily Weather History Graph

Daily Weather History Graph

Search for Another Location

Airport or City:

Trip Planner

Search our weather history database for the weather conditions in past years. The results will help you decide how hot, cold, wet, or windy it might be!

Date:

Astronomy

Jan. 22, 2013 Rise Set
Actual Time 7:47 AM MST 5:32 PM MST
Civil Twilight 7:17 AM MST 6:02 PM MST
Nautical Twilight 6:43 AM MST 6:36 PM MST
Astronomical Twilight 6:11 AM MST 7:08 PM MST
Moon 1:58 PM MST 4:12 AM MST
Length of Visible Light 10h 45m
Length of Day
9h 45m
Waxing Gibbous, 83% of the Moon is Illuminated
Jan 22
Waxing Gibbous
Jan 26
Full
Feb 3
Last Quarter
Feb 10
New
Feb 17
First Quarter

Hourly Weather History & Observations

Time (MST) Temp. Windchill Dew Point Humidity Pressure Visibility Wind Dir Wind Speed Gust Speed Precip Events Conditions
12:00 AM 10.4 °F - 6.8 °F 85% 30.43 in 3.0 mi Calm Calm - N/A   Overcast
12:28 AM 10.4 °F - 6.8 °F 85% 30.43 in 3.0 mi Calm Calm - N/A   Overcast
12:40 AM 10.4 °F - 6.8 °F 85% 30.43 in 2.0 mi Calm Calm - N/A   Haze
12:45 AM 10.4 °F - 6.8 °F 85% 30.43 in 0.8 mi Calm Calm - N/A   Overcast
12:53 AM 12.0 °F - 9.0 °F 88% 30.59 in 0.2 mi Calm Calm - N/A Fog Light Freezing Fog
1:19 AM 12.2 °F 6.1 °F 6.8 °F 79% 30.43 in 1.0 mi WNW 3.5 mph - 0.00 in Snow Light Snow
1:50 AM 10.4 °F - 6.8 °F 85% 30.44 in 1.0 mi Calm Calm - 0.00 in Snow Light Snow
1:53 AM 10.9 °F - 6.1 °F 81% 30.61 in 1.2 mi Calm Calm - 0.00 in Snow Light Snow
2:07 AM 10.4 °F - 5.0 °F 79% 30.44 in 2.5 mi Calm Calm - 0.00 in   Haze
2:23 AM 8.6 °F 2.0 °F 3.2 °F 79% 30.45 in 3.0 mi SSE 3.5 mph - 0.00 in   Haze
2:33 AM 8.6 °F 2.0 °F 3.2 °F 79% 30.45 in 2.5 mi SSE 3.5 mph - 0.00 in   Haze
2:44 AM 10.4 °F - 5.0 °F 79% 30.45 in 3.0 mi Calm Calm - 0.00 in   Haze
2:53 AM 9.0 °F - 5.0 °F 84% 30.63 in 3.0 mi Calm Calm - 0.00 in   Overcast
3:00 AM 8.6 °F 2.0 °F 5.0 °F 85% 30.45 in 2.5 mi SSE 3.5 mph - N/A   Overcast
3:38 AM 8.6 °F 0.1 °F 3.2 °F 79% 30.44 in 1.8 mi SSE 4.6 mph - N/A   Haze
3:53 AM 9.0 °F 0.6 °F 3.9 °F 80% 30.62 in 1.5 mi SSE 4.6 mph - 0.00 in Snow Light Snow
4:06 AM 8.6 °F - 3.2 °F 79% 30.44 in 2.0 mi Calm Calm - 0.00 in   Haze
4:51 AM 6.8 °F -0.1 °F -0.4 °F 72% 30.43 in 3.0 mi SSE 3.5 mph - 0.00 in   Haze
4:53 AM 7.0 °F -1.7 °F -0.0 °F 73% 30.62 in 3.0 mi SSE 4.6 mph - 0.00 in   Haze
5:09 AM 5.0 °F -2.1 °F -0.4 °F 78% 30.42 in 3.0 mi SSE 3.5 mph - N/A   Haze
5:29 AM 5.0 °F -5.6 °F -0.4 °F 78% 30.41 in 1.8 mi South 5.8 mph - N/A   Haze
5:45 AM 5.0 °F - -0.4 °F 78% 30.41 in 2.5 mi Calm Calm - N/A   Haze
5:53 AM 6.1 °F - -0.0 °F 76% 30.63 in 2.5 mi Calm Calm - N/A   Haze
5:59 AM 6.8 °F - -0.4 °F 72% 30.41 in 3.0 mi Calm Calm - N/A   Haze
6:21 AM 6.8 °F - 1.4 °F 79% 30.42 in 3.0 mi Calm Calm - N/A   Haze
6:37 AM 6.8 °F - -0.4 °F 72% 30.42 in 2.5 mi Calm Calm - N/A   Haze
6:53 AM 7.0 °F - 1.0 °F 77% 30.62 in 2.5 mi Calm Calm - N/A   Haze
7:10 AM 8.6 °F - 1.4 °F 73% 30.42 in 1.8 mi Calm Calm - 0.00 in Snow Light Snow
7:18 AM 6.8 °F - 1.4 °F 79% 30.42 in 2.5 mi Calm Calm - 0.00 in   Haze
7:29 AM 6.8 °F - -0.4 °F 72% 30.42 in 4.0 mi Calm Calm - 0.00 in   Haze
7:49 AM 6.8 °F - 1.4 °F 79% 30.42 in 2.5 mi Calm Calm - 0.00 in   Haze
7:53 AM 7.0 °F - 1.0 °F 77% 30.63 in 2.5 mi Calm Calm - 0.00 in   Haze
8:29 AM 5.0 °F - -0.4 °F 78% 30.43 in 1.8 mi Calm Calm - N/A   Haze
8:35 AM 6.8 °F - 1.4 °F 79% 30.44 in 2.0 mi Calm Calm - N/A   Haze
8:53 AM 9.0 °F - 3.0 °F 77% 30.63 in 2.5 mi Calm Calm - N/A   Haze
9:07 AM 8.6 °F - 3.2 °F 79% 30.44 in 1.5 mi Calm Calm - N/A   Haze
9:33 AM 12.2 °F - 6.8 °F 79% 30.43 in 2.0 mi Calm Calm - N/A   Haze
9:53 AM 14.0 °F - 9.0 °F 80% 30.62 in 2.0 mi Calm Calm - N/A   Haze
10:11 AM 15.8 °F - 10.4 °F 79% 30.44 in 2.5 mi Calm Calm - N/A   Haze
10:27 AM 17.6 °F - 14.0 °F 86% 30.43 in 3.0 mi Calm Calm - N/A   Clear
10:53 AM 19.0 °F - 15.1 °F 85% 30.58 in 3.0 mi Calm Calm - N/A   Clear
11:53 AM 15.1 °F 7.7 °F 9.0 °F 77% 30.60 in 4.0 mi NW 4.6 mph - N/A   Haze
12:10 PM 15.8 °F 8.6 °F 8.6 °F 73% 30.42 in 3.0 mi NNW 4.6 mph - N/A   Haze
12:53 PM 12.9 °F 3.8 °F 7.0 °F 77% 30.58 in 5.0 mi NW 5.8 mph - N/A   Haze
1:53 PM 14.0 °F 8.2 °F 8.1 °F 77% 30.55 in 6.0 mi NNW 3.5 mph - N/A   Haze
2:53 PM 12.9 °F 5.2 °F 7.0 °F 77% 30.55 in 5.0 mi WNW 4.6 mph - N/A   Haze
3:53 PM 10.9 °F 2.9 °F 6.1 °F 81% 30.54 in 4.0 mi NW 4.6 mph - N/A   Haze
4:53 PM 10.0 °F 3.6 °F 6.1 °F 84% 30.54 in 3.0 mi NW 3.5 mph - N/A   Clear
5:53 PM 9.0 °F - 5.0 °F 84% 30.55 in 5.0 mi Calm Calm - N/A   Clear
6:53 PM 8.1 °F - 3.9 °F 83% 30.55 in 4.0 mi Calm Calm - N/A   Clear
7:53 PM 8.1 °F - 3.9 °F 83% 30.56 in 4.0 mi Calm Calm - N/A   Clear
8:53 PM 5.0 °F -2.1 °F 1.0 °F 84% 30.57 in 5.0 mi South 3.5 mph - N/A   Clear
9:27 PM 8.6 °F - 3.2 °F 79% 30.37 in 4.0 mi Calm Calm - N/A   Haze
9:35 PM 8.6 °F - 5.0 °F 85% 30.37 in 3.0 mi Calm Calm - N/A   Mostly Cloudy
9:44 PM 8.6 °F - 5.0 °F 85% 30.37 in 1.8 mi Calm Calm - N/A   Overcast
9:53 PM 10.0 °F - 6.1 °F 84% 30.54 in 1.5 mi Calm Calm - N/A   Overcast
10:13 PM 10.4 °F - 6.8 °F 85% 30.38 in 2.0 mi Calm Calm - N/A   Overcast
10:53 PM 10.0 °F - 7.0 °F 87% 30.52 in 2.0 mi Calm Calm - N/A   Overcast
11:28 PM 10.4 °F - 8.6 °F 92% 30.38 in 1.5 mi Calm Calm - N/A   Overcast
11:48 PM 10.4 °F 2.2 °F 6.8 °F 85% 30.37 in 1.5 mi East 4.6 mph - N/A   Overcast
11:53 PM 10.9 °F 2.9 °F 8.1 °F 88% 30.53 in 1.5 mi ENE 4.6 mph - N/A   Overcast